This is the latest recevied weather packets stored in our database for station/object KK6LZB. If no packets are shown the sender has not sent any weather packets the latest 10 day(s).
| Time | Temp. | Humidity | Pressure | Rain* | Wind** | Luminosity | Snow |
|---|---|---|---|---|---|---|---|
| 1777918260 | 20° C | 60% | 1018.3 hPa | 0 mm | - | 704 W/m² | - |
| 1777917959 | 18.89° C | 62% | 1018.5 hPa | 0 mm | - | 647 W/m² | - |
| 1777917657 | 18.33° C | 66% | 1018.4 hPa | 0 mm | - | 547 W/m² | - |
| 1777917354 | 18.33° C | 66% | 1018.5 hPa | 0 mm | - | 461 W/m² | - |
| 1777917051 | 19.44° C | 62% | 1018.2 hPa | 0 mm | - | 359 W/m² | - |
| 1777916749 | 19.44° C | 58% | 1018.3 hPa | 0 mm | - | 616 W/m² | - |
| 1777916445 | 18.33° C | 60% | 1018.1 hPa | 0 mm | - | 575 W/m² | - |
| 1777916142 | 18.89° C | 61% | 1018.1 hPa | 0 mm | - | 492 W/m² | - |
| 1777915840 | 18.33° C | 62% | 1018.2 hPa | 0 mm | - | 580 W/m² | - |
| 1777915536 | 18.89° C | 62% | 1018.3 hPa | 0 mm | - | 501 W/m² | - |
| 1777915232 | 18.89° C | 62% | 1018.1 hPa | 0 mm | - | 520 W/m² | - |
| 1777914929 | 18.33° C | 63% | 1017.9 hPa | 0 mm | - | 564 W/m² | - |
| 1777914626 | 18.33° C | 63% | 1018 hPa | 0 mm | - | 532 W/m² | - |
| 1777914322 | 17.78° C | 65% | 1017.8 hPa | 0 mm | - | 540 W/m² | - |
| 1777914020 | 17.22° C | 66% | 1017.7 hPa | 0 mm | - | 444 W/m² | - |
| 1777913715 | 16.67° C | 70% | 1017.9 hPa | 0 mm | - | 385 W/m² | - |
| 1777913413 | 17.22° C | 70% | 1017.7 hPa | 0 mm | - | 348 W/m² | - |
| 1777913109 | 17.78° C | 66% | 1017.8 hPa | 0 mm | - | 324 W/m² | - |
| 1777912805 | 17.22° C | 67% | 1017.7 hPa | 0 mm | - | 473 W/m² | - |
| 1777912501 | 17.78° C | 67% | 1017.8 hPa | 0 mm | - | 450 W/m² | - |
| 1777912198 | 16.67° C | 68% | 1017.8 hPa | 0 mm | - | 436 W/m² | - |
| 1777911894 | 17.22° C | 68% | 1017.9 hPa | 0 mm | - | 387 W/m² | - |
| 1777911591 | 17.22° C | 72% | 1018 hPa | 0 mm | - | 254 W/m² | - |
| 1777911287 | 16.67° C | 72% | 1017.7 hPa | 0 mm | - | 297 W/m² | - |
| 1777910984 | 16.11° C | 73% | 1017.7 hPa | 0 mm | - | 318 W/m² | - |
* Rain latest hour (hover to see other rain measurements)
** Current wind speed in m/s (hover to see current wind gust speed)